EW1732 Weather Reports


Display with metric or nautical units.
time (UTC)temp
F
wind
direction
speed
MPH
gust
MPH
rain 1hr
in
rain 24hr
in
rain mn
in
humidity
%
barometer
mb
20260510133254 54 137 0.0 0.0 0.00 0.35 0.00 98 1013.5
20260510131056 53 135 0.0 0.0 0.00 0.36 0.00 98 1013.2
20260510130105 53 135 0.0 0.0 0.00 0.36 0.00 98 1013.1
20260510125040 53 135 0.0 0.0 0.00 0.36 0.00 98 1013.2
20260510124015 53 135 0.0 0.0 0.00 0.36 0.00 98 1013.1
20260510123011 52 135 0.0 0.0 0.00 0.36 0.00 98 1013.0
20260510114643 52 94 0.0 0.0 0.00 0.36 0.00 98 1012.6
20260510113614 51 94 0.0 0.0 0.00 0.36 0.00 98 1012.6
20260510110410 51 94 0.0 0.0 0.00 0.37 0.00 98 1012.2
20260510103142 50 94 0.0 0.0 0.00 0.37 0.00 98 1012.1
20260510102135 50 129 0.0 0.0 0.00 0.37 0.00 98 1011.9
20260510100043 50 129 0.0 0.0 0.00 0.37 0.00 98 1012.0
20260510095026 50 129 0.0 0.0 0.00 0.37 0.00 98 1011.9
20260510094012 50 128 0.0 0.0 0.00 0.37 0.00 98 1011.9
20260510093005 50 139 0.0 0.0 0.00 0.37 0.00 98 1012.0
20260510092005 50 143 0.0 0.0 0.00 0.37 0.00 98 1012.2
20260510090953 50 143 0.0 0.0 0.00 0.37 0.00 98 1012.1
20260510085936 50 143 0.0 0.0 0.00 0.37 0.00 97 1012.3
20260510084951 50 143 0.0 0.0 0.00 0.37 0.00 98 1012.4
20260510084002 51 115 0.0 0.0 0.00 0.37 0.00 98 1012.4
20260510080640 51 244 0.0 1.0 0.00 0.37 0.00 98 1012.5
20260510075640 51 226 0.0 0.0 0.00 0.37 0.00 98 1012.3
20260510074613 50 224 0.0 0.0 0.00 0.39 0.00 98 1012.1
20260510073553 50 210 0.0 0.0 0.00 0.39 0.00 98 1011.7
20260510072536 50 211 0.0 0.0 0.00 0.39 0.00 98 1011.7
20260510071601 50 211 0.0 0.0 0.00 0.39 0.00 98 1011.8
20260510070547 50 211 0.0 0.0 0.00 0.39 0.00 98 1011.8
20260510065524 50 211 0.0 0.0 0.00 0.39 0.00 97 1011.8
20260510064514 50 210 0.0 0.0 0.00 0.39 0.00 97 1012.0
20260510063513 50 210 0.0 0.0 0.00 0.39 0.00 97 1012.1
20260510062508 50 210 0.0 0.0 0.00 0.39 0.00 97 1012.1
20260510061506 50 211 0.0 0.0 0.00 0.39 0.00 97 1012.0
20260510060522 50 210 0.0 0.0 0.00 0.39 0.00 97 1011.9
20260510055452 50 148 0.0 0.0 0.00 0.39 0.00 97 1011.5
20260510054513 50 148 0.0 0.0 0.00 0.39 0.00 97 1011.4
20260510053511 50 148 0.0 0.0 0.00 0.39 0.00 97 1011.7
20260510052529 50 148 0.0 0.0 0.00 0.39 0.00 97 1011.7
20260510051549 50 148 0.0 0.0 0.00 0.39 0.00 97 1011.9
20260510050539 50 193 0.0 0.0 0.00 0.39 0.00 97 1011.9
20260510045516 50 201 0.0 0.0 0.00 0.39 0.00 97 1011.8
20260510044530 50 201 0.0 0.0 0.00 0.39 0.00 97 1011.8
20260510043517 51 212 0.0 0.0 0.00 0.39 0.00 97 1011.9
20260510042450 51 212 0.0 0.0 0.00 0.39 0.00 97 1011.9
20260510041436 51 131 0.0 0.0 0.00 0.39 0.00 97 1011.6
20260510040458 51 137 0.0 0.0 0.00 0.39 0.00 97 1011.6
20260510035445 51 137 0.0 0.0 0.00 0.39 0.40 97 1011.6
20260510034509 51 134 0.0 0.0 0.00 0.39 0.40 97 1011.3
20260510033452 51 134 0.0 0.0 0.00 0.39 0.40 97 1011.5
20260510032500 51 134 0.0 0.0 0.00 0.39 0.40 97 1011.6
20260510031507 51 134 0.0 0.0 0.00 0.39 0.40 97 1011.7
20260510025344 51 134 0.0 0.0 0.00 0.39 0.40 97 1011.7
20260510024341 52 132 0.0 0.0 0.00 0.39 0.40 97 1011.7
20260510023308 51 132 0.0 0.0 0.00 0.39 0.40 97 1011.8
20260510021230 51 132 0.0 0.0 0.00 0.39 0.40 97 1011.7
20260510015058 51 132 0.0 0.0 0.00 0.39 0.40 97 1011.6
20260510014121 50 132 0.0 0.0 0.00 0.39 0.40 97 1011.4
20260510013143 50 132 0.0 0.0 0.00 0.39 0.40 97 1011.5
20260510012133 51 132 0.0 0.0 0.00 0.39 0.40 96 1011.4
20260510011158 51 132 0.0 0.0 0.00 0.39 0.40 96 1011.4
20260510005024 51 132 0.0 0.0 0.00 0.39 0.40 96 1011.0
20260510002915 52 132 0.0 0.0 0.00 0.39 0.40 96 1010.9
20260510001940 52 132 0.0 0.0 0.00 0.39 0.40 96 1010.8
20260509234813 53 131 0.0 0.0 0.00 0.39 0.40 96 1010.7
20260509233833 53 131 0.0 0.0 0.00 0.39 0.40 96 1010.8
20260509232823 53 136 0.0 0.0 0.00 0.39 0.40 96 1010.9
20260509231832 53 126 0.0 0.0 0.00 0.39 0.40 96 1010.8
20260509230850 53 130 0.0 0.0 0.00 0.39 0.40 96 1010.8
20260509224740 53 130 0.0 0.0 0.00 0.39 0.40 96 1011.1
20260509223735 53 130 0.0 0.0 0.04 0.39 0.40 96 1011.0
20260509222735 53 130 0.0 0.0 0.09 0.39 0.40 96 1011.1
20260509221743 53 130 0.0 0.0 0.12 0.39 0.38 96 1011.3
20260509220747 53 131 0.0 0.0 0.15 0.36 0.36 96 1011.4
20260509215756 53 263 0.0 0.0 0.30 0.32 0.33 95 1011.7
20260509213629 53 263 0.0 0.0 0.23 0.26 0.27 95 1011.4
20260509212554 53 264 0.0 0.0 0.09 0.24 0.24 95 1011.8
20260509211603 54 91 0.0 0.0 0.08 0.21 0.21 95 1011.8
20260509210609 54 101 0.0 0.0 0.09 0.21 0.21 94 1012.0
20260509205608 55 96 0.0 0.0 0.00 0.19 0.19 95 1011.6
20260509203441 55 96 0.0 0.0 0.00 0.18 0.18 95 1011.7
20260509202417 55 86 0.0 0.0 0.00 0.16 0.17 94 1011.4
20260509201349 55 86 0.0 0.0 0.00 0.16 0.17 94 1011.4
20260509200356 55 86 0.0 0.0 0.06 0.16 0.17 94 1011.6
20260509195341 55 85 0.0 0.0 0.05 0.16 0.16 94 1011.7
20260509194309 55 127 0.0 0.0 0.06 0.14 0.15 93 1011.8
20260509193332 55 127 0.0 0.0 0.08 0.13 0.13 92 1011.8
20260509192335 56 355 0.0 1.0 0.19 0.12 0.13 92 1012.1
20260509191300 56 129 0.0 0.0 0.08 0.09 0.09 91 1012.1
20260509190251 57 253 0.0 0.0 0.09 0.09 0.08 89 1012.0
20260509184200 58 253 0.0 0.0 0.00 0.07 0.05 83 1011.6
20260509183217 59 248 0.0 0.0 0.00 0.06 0.04 81 1011.5
20260509182229 59 252 0.0 0.0 0.00 0.06 0.04 78 1011.2
20260509181216 60 308 0.0 0.0 0.00 0.06 0.04 78 1011.2
20260509180215 60 101 0.0 0.0 0.00 0.06 0.04 77 1011.2
20260509175200 59 310 0.0 0.0 0.00 0.06 0.04 79 1011.2
20260509174157 59 311 0.0 0.0 0.00 0.06 0.04 80 1011.2
20260509173141 59 337 0.0 0.0 0.00 0.06 0.04 79 1011.3
20260509172117 60 335 0.0 0.0 0.00 0.06 0.04 78 1011.4
20260509171136 60 335 0.0 1.0 0.00 0.06 0.04 80 1011.5
20260509170104 59 333 0.0 0.0 0.00 0.06 0.04 82 1011.6
20260509165058 58 66 0.0 3.0 0.00 0.06 0.04 83 1011.9
20260509164031 57 133 0.0 0.0 0.00 0.06 0.04 86 1012.1
20260509163011 56 133 0.0 0.0 0.00 0.06 0.04 87 1012.4
20260509161941 56 300 0.0 0.0 0.00 0.06 0.04 88 1012.4
20260509155819 55 88 0.0 0.0 0.00 0.06 0.04 88 1012.5
20260509154811 55 135 0.0 0.0 0.00 0.06 0.04 89 1012.7
20260509153750 55 141 0.0 0.0 0.00 0.06 0.04 89 1012.8
20260509152805 55 127 0.0 0.0 0.00 0.06 0.04 89 1012.8
20260509151805 55 144 0.0 0.0 0.00 0.06 0.04 89 1012.9
20260509150733 55 130 0.0 0.0 0.00 0.06 0.04 89 1012.8
20260509145712 54 127 0.0 0.0 0.00 0.06 0.04 89 1012.9
20260509144702 54 132 0.0 0.0 0.00 0.06 0.04 91 1012.9
20260509142538 52 76 0.0 0.0 0.00 0.06 0.04 93 1012.5
20260509141532 52 74 0.0 0.0 0.00 0.06 0.04 93 1012.5
20260509140551 52 347 0.0 0.0 0.00 0.06 0.04 94 1012.6
20260509135544 51 78 0.0 0.0 0.00 0.06 0.04 94 1012.9
20260509134545 50 68 0.0 1.0 0.00 0.06 0.04 94 1012.9